THY10 KLAX-LTFM

Flight info

Callsign THY10
Flight time N/A
Altitude 29000
Route OSHNN1 OSHNN DCT BEALE DCT BAWER DCT BOY DCT DIK/N0494F310 Q945 SEGAP DCT KAIIN DCT 55N092W 60N086W 64N080W 66N070W/M085F330 DCT DARUB DCT 68N050W 69N040W 69N030W 68N020W 66N010W DCT ISVIG/N0488F330 DCT BINRO/N0483F350 DCT BIKRU DCT BILRA DCT ROBOV DCT LENOV DCT KENIN DCT LARMU DCT RUTUV DCT RONBU DCT BUVAK DCT RIXEN
Aircraft B77W/H-SDE1E2E3FGHIJ2J3J4J5M1RWXY/LB1D1

Departure

Time 2026-04-26 09:52
Airport Los Angeles International Airport (KLAX)

Arrival

Time N/A
Airport İstanbul Airport (LTFM)
Time Latitude Longitude Altitude Speed Heading
2026-04-26 08:46 33.94518 -118.41146 99 ft 0 kts 83°
2026-04-26 09:32 33.94518 -118.41148 99 ft 2 kts 83°
2026-04-26 09:33 33.94521 -118.41174 99 ft 4 kts 117°
2026-04-26 09:33 33.94526 -118.41197 98 ft 4 kts 102°
2026-04-26 09:33 33.94535 -118.41227 98 ft 4 kts 122°
2026-04-26 09:33 33.94552 -118.41251 98 ft 4 kts 144°
2026-04-26 09:34 33.94575 -118.41266 100 ft 4 kts 168°
2026-04-26 09:34 33.94600 -118.41270 100 ft 4 kts 173°
2026-04-26 09:34 33.94618 -118.41273 100 ft 1 kts 173°
2026-04-26 09:38 33.94613 -118.41272 102 ft 3 kts 173°
2026-04-26 09:38 33.94576 -118.41267 100 ft 6 kts 173°
2026-04-26 09:38 33.94534 -118.41260 101 ft 6 kts 173°
2026-04-26 09:38 33.94492 -118.41254 100 ft 6 kts 173°
2026-04-26 09:39 33.94450 -118.41248 100 ft 6 kts 173°
2026-04-26 09:39 33.94408 -118.41242 100 ft 6 kts 173°
2026-04-26 09:39 33.94366 -118.41236 100 ft 6 kts 173°
2026-04-26 09:39 33.94325 -118.41230 101 ft 6 kts 173°
2026-04-26 09:40 33.94283 -118.41224 100 ft 6 kts 172°
2026-04-26 09:40 33.94232 -118.41216 101 ft 9 kts 172°
2026-04-26 09:40 33.94156 -118.41204 101 ft 11 kts 173°
2026-04-26 09:40 33.94078 -118.41192 101 ft 11 kts 173°
2026-04-26 09:41 33.93999 -118.41181 100 ft 11 kts 173°
2026-04-26 09:41 33.93926 -118.41170 100 ft 10 kts 173°
2026-04-26 09:41 33.93877 -118.41163 102 ft 5 kts 173°
2026-04-26 09:41 33.93850 -118.41145 103 ft 5 kts 123°
2026-04-26 09:42 33.93849 -118.41105 104 ft 5 kts 83°
2026-04-26 09:42 33.93854 -118.41052 103 ft 9 kts 83°
2026-04-26 09:42 33.93863 -118.40962 104 ft 13 kts 83°
2026-04-26 09:42 33.93876 -118.40836 102 ft 17 kts 83°
2026-04-26 09:43 33.93893 -118.40677 103 ft 20 kts 83°
2026-04-26 09:43 33.93909 -118.40513 104 ft 20 kts 83°
2026-04-26 09:43 33.93926 -118.40347 104 ft 20 kts 83°
2026-04-26 09:43 33.93942 -118.40183 104 ft 20 kts 83°
2026-04-26 09:44 33.93959 -118.40021 104 ft 20 kts 83°
2026-04-26 09:44 33.93975 -118.39857 102 ft 20 kts 83°
2026-04-26 09:44 33.93992 -118.39693 101 ft 20 kts 83°
2026-04-26 09:44 33.94009 -118.39529 102 ft 20 kts 83°
2026-04-26 09:45 33.94026 -118.39365 105 ft 20 kts 83°
2026-04-26 09:45 33.94043 -118.39201 103 ft 20 kts 83°
2026-04-26 09:45 33.94054 -118.39036 105 ft 20 kts 88°
2026-04-26 09:45 33.94068 -118.38872 102 ft 20 kts 83°
2026-04-26 09:46 33.94084 -118.38708 105 ft 20 kts 83°
2026-04-26 09:46 33.94101 -118.38544 104 ft 19 kts 83°
2026-04-26 09:46 33.94113 -118.38427 105 ft 8 kts 83°
2026-04-26 09:46 33.94117 -118.38385 103 ft 4 kts 83°
2026-04-26 09:47 33.94110 -118.38354 106 ft 4 kts 129°
2026-04-26 09:47 33.94084 -118.38343 105 ft 4 kts 169°
2026-04-26 09:47 33.94057 -118.38338 107 ft 4 kts 171°
2026-04-26 09:47 33.94029 -118.38333 108 ft 4 kts 171°
2026-04-26 09:48 33.94002 -118.38328 111 ft 4 kts 173°
2026-04-26 09:48 33.93974 -118.38325 112 ft 4 kts 181°
2026-04-26 09:48 33.93954 -118.38348 113 ft 4 kts 246°
2026-04-26 09:48 33.93952 -118.38363 110 ft 0 kts 259°
2026-04-26 09:50 33.93944 -118.38424 112 ft 8 kts 262°
2026-04-26 09:50 33.93944 -118.38427 112 ft 0 kts 262°
2026-04-26 09:51 33.93936 -118.38501 112 ft 36 kts 264°
2026-04-26 09:51 33.93871 -118.39135 110 ft 115 kts 263°
2026-04-26 09:52 33.93742 -118.40384 114 ft 185 kts 263°
2026-04-26 09:52 33.93395 -118.43921 1260 ft 221 kts 262°
2026-04-26 09:52 33.93173 -118.45752 2052 ft 221 kts 257°
2026-04-26 09:53 33.92418 -118.47396 2213 ft 234 kts 228°
2026-04-26 09:53 33.91307 -118.48881 2421 ft 249 kts 231°
2026-04-26 09:53 33.90146 -118.50485 2879 ft 257 kts 231°
2026-04-26 09:53 33.88963 -118.52125 3466 ft 262 kts 231°
2026-04-26 09:54 33.87772 -118.53797 4148 ft 263 kts 232°
2026-04-26 09:54 33.86445 -118.55302 4717 ft 269 kts 212°
2026-04-26 09:54 33.84625 -118.55943 5269 ft 279 kts 185°
2026-04-26 09:54 33.82695 -118.55646 5866 ft 282 kts 170°
2026-04-26 09:55 33.80761 -118.55099 6368 ft 288 kts 170°
2026-04-26 09:55 33.78804 -118.54552 7006 ft 289 kts 171°
2026-04-26 09:55 33.76832 -118.54012 7606 ft 291 kts 171°
2026-04-26 09:55 33.74852 -118.53474 8190 ft 293 kts 171°
2026-04-26 09:56 33.72854 -118.52934 8776 ft 295 kts 171°
2026-04-26 09:56 33.70886 -118.52207 9259 ft 302 kts 153°
2026-04-26 09:56 33.69317 -118.50475 9668 ft 315 kts 123°
2026-04-26 09:56 33.68454 -118.48043 10098 ft 319 kts 111°
2026-04-26 09:57 33.67730 -118.45507 10300 ft 334 kts 111°
2026-04-26 09:57 33.66953 -118.42800 10436 ft 352 kts 111°
2026-04-26 09:57 33.66125 -118.39962 10579 ft 370 kts 111°
2026-04-26 09:57 33.65248 -118.36991 10789 ft 385 kts 111°
2026-04-26 09:58 33.64430 -118.33902 11078 ft 393 kts 102°
2026-04-26 09:58 33.64313 -118.30598 11405 ft 400 kts 87°
2026-04-26 09:58 33.64459 -118.27237 11903 ft 407 kts 89°
2026-04-26 09:58 33.64508 -118.23831 12540 ft 410 kts 90°
2026-04-26 09:59 33.64726 -118.20429 12948 ft 413 kts 75°
2026-04-26 09:59 33.65917 -118.17290 13338 ft 417 kts 52°
2026-04-26 09:59 33.67893 -118.14779 13917 ft 412 kts 35°
2026-04-26 09:59 33.68190 -118.14497 13987 ft 411 kts 34°
2026-04-26 10:00 33.69834 -118.13026 14288 ft 414 kts 33°
2026-04-26 10:00 33.72185 -118.10971 14765 ft 420 kts 32°
2026-04-26 10:00 33.74554 -118.08902 15310 ft 423 kts 32°
2026-04-26 10:00 33.76936 -118.06802 15877 ft 426 kts 33°
2026-04-26 10:01 33.78092 -118.05775 16128 ft 428 kts 33°
2026-04-26 10:01 33.78580 -118.05340 16236 ft 429 kts 33°
2026-04-26 10:01 33.79939 -118.04125 16517 ft 432 kts 33°
2026-04-26 10:01 33.82279 -118.02022 17000 ft 437 kts 33°
2026-04-26 10:02 33.83784 -118.00665 17353 ft 439 kts 33°
2026-04-26 10:02 33.86240 -117.98447 17878 ft 443 kts 33°
2026-04-26 10:02 33.88721 -117.96206 18377 ft 447 kts 33°
2026-04-26 10:02 33.91220 -117.93947 18832 ft 451 kts 33°
2026-04-26 10:03 33.93726 -117.91664 19281 ft 454 kts 33°
2026-04-26 10:03 33.96253 -117.89351 19717 ft 458 kts 33°
2026-04-26 10:03 33.98807 -117.87013 20154 ft 462 kts 33°
2026-04-26 10:03 34.01372 -117.84664 20581 ft 466 kts 32°
2026-04-26 10:04 34.03966 -117.82289 21010 ft 469 kts 32°
2026-04-26 10:04 34.06577 -117.79897 21445 ft 473 kts 32°
2026-04-26 10:04 34.09177 -117.77453 21880 ft 478 kts 37°
2026-04-26 10:04 34.11499 -117.74535 22214 ft 487 kts 47°
2026-04-26 10:05 34.13602 -117.71314 22586 ft 492 kts 49°
2026-04-26 10:05 34.15688 -117.68006 22998 ft 496 kts 49°
2026-04-26 10:05 34.17797 -117.64701 23413 ft 498 kts 49°
2026-04-26 10:05 34.19952 -117.61407 23758 ft 501 kts 48°
2026-04-26 10:06 34.22149 -117.58115 24104 ft 504 kts 47°
2026-04-26 10:06 34.24373 -117.54815 24415 ft 507 kts 47°
2026-04-26 10:06 34.26607 -117.51504 24730 ft 510 kts 47°
2026-04-26 10:06 34.28847 -117.48170 25058 ft 512 kts 47°
2026-04-26 10:07 34.31101 -117.44804 25367 ft 515 kts 47°
2026-04-26 10:07 34.33335 -117.41466 25641 ft 519 kts 48°
2026-04-26 10:07 34.35609 -117.38066 25946 ft 521 kts 48°
2026-04-26 10:07 34.37922 -117.34604 26248 ft 524 kts 48°
2026-04-26 10:08 34.40217 -117.31164 26562 ft 526 kts 48°
2026-04-26 10:08 34.42492 -117.27751 26852 ft 528 kts 48°
2026-04-26 10:08 34.44831 -117.24238 27154 ft 530 kts 48°
2026-04-26 10:08 34.47121 -117.20796 27446 ft 533 kts 48°
2026-04-26 10:09 34.49451 -117.17288 27704 ft 535 kts 48°
2026-04-26 10:09 34.51027 -117.14916 27894 ft 537 kts 48°
2026-04-26 10:09 34.54135 -117.10232 28225 ft 539 kts 48°
2026-04-26 10:09 34.56512 -117.06697 28472 ft 541 kts 47°
2026-04-26 10:10 34.58925 -117.03182 28685 ft 544 kts 47°
2026-04-26 10:10 34.61366 -116.99655 28749 ft 548 kts 47°
2026-04-26 10:10 34.66284 -116.92532 28829 ft 552 kts 47°
2026-04-26 10:11 34.71198 -116.85356 28814 ft 552 kts 47°
2026-04-26 10:11 34.76092 -116.78178 28834 ft 551 kts 48°
2026-04-26 10:12 34.80984 -116.70993 28819 ft 551 kts 48°
2026-04-26 10:12 34.85867 -116.63812 28837 ft 550 kts 47°
2026-04-26 10:13 34.90941 -116.56841 28817 ft 550 kts 44°
2026-04-26 10:13 34.96122 -116.50074 28820 ft 550 kts 44°
2026-04-26 10:14 35.01317 -116.43224 28806 ft 551 kts 45°
2026-04-26 10:14 35.06479 -116.36309 28820 ft 551 kts 45°
2026-04-26 10:15 35.11626 -116.29370 28801 ft 551 kts 45°
2026-04-26 10:15 35.16769 -116.22426 28826 ft 551 kts 45°
2026-04-26 10:16 35.21910 -116.15482 28806 ft 551 kts 46°
2026-04-26 10:16 35.27050 -116.08523 28825 ft 551 kts 46°
2026-04-26 10:17 35.32179 -116.01567 28826 ft 551 kts 46°
2026-04-26 10:17 35.37308 -115.94596 28837 ft 550 kts 46°
2026-04-26 10:18 35.42429 -115.87621 28827 ft 549 kts 46°
2026-04-26 10:18 35.47493 -115.80708 28835 ft 548 kts 46°
2026-04-26 10:19 35.52575 -115.73758 28825 ft 546 kts 46°
2026-04-26 10:19 35.57628 -115.66833 28844 ft 544 kts 46°
2026-04-26 10:20 35.61821 -115.61076 28829 ft 543 kts 46°
2026-04-26 10:20 35.66848 -115.54160 28834 ft 542 kts 46°
2026-04-26 10:21 35.71866 -115.47243 28832 ft 542 kts 46°
2026-04-26 10:21 35.76888 -115.40300 28815 ft 543 kts 46°
2026-04-26 10:22 35.81912 -115.33336 28806 ft 544 kts 46°
2026-04-26 10:22 35.86943 -115.26347 28802 ft 545 kts 46°
2026-04-26 10:23 35.91970 -115.19351 28787 ft 545 kts 46°
2026-04-26 10:23 35.97001 -115.12334 28798 ft 546 kts 46°
2026-04-26 10:24 36.02029 -115.05307 28790 ft 547 kts 46°
2026-04-26 10:24 36.07062 -114.98258 28760 ft 547 kts 46°
2026-04-26 10:25 36.12094 -114.91194 28703 ft 547 kts 46°
2026-04-26 10:25 36.17123 -114.84120 28710 ft 547 kts 46°
2026-04-26 10:26 36.21930 -114.76812 28690 ft 548 kts 52°
2026-04-26 10:26 36.26318 -114.69184 28679 ft 547 kts 53°
2026-04-26 10:27 36.30696 -114.61488 28659 ft 546 kts 53°
2026-04-26 10:27 36.35132 -114.53857 28673 ft 545 kts 52°
2026-04-26 10:28 36.39592 -114.46265 28655 ft 545 kts 52°
2026-04-26 10:28 36.44050 -114.38671 28676 ft 544 kts 52°
2026-04-26 10:29 36.48501 -114.31057 28667 ft 545 kts 52°
2026-04-26 10:29 36.52948 -114.23423 28685 ft 546 kts 52°
2026-04-26 10:30 36.57403 -114.15759 28674 ft 547 kts 52°
2026-04-26 10:30 36.61850 -114.08090 28680 ft 547 kts 52°
2026-04-26 10:31 36.66302 -114.00398 28665 ft 547 kts 52°
2026-04-26 10:31 36.70740 -113.92713 28693 ft 546 kts 52°
2026-04-26 10:32 36.75135 -113.85084 28693 ft 546 kts 52°
2026-04-26 10:32 36.79555 -113.77395 28703 ft 545 kts 52°
2026-04-26 10:33 36.83965 -113.69705 28721 ft 544 kts 52°
2026-04-26 10:33 36.88361 -113.62021 28757 ft 543 kts 52°
2026-04-26 10:34 36.92752 -113.54329 28758 ft 543 kts 52°
2026-04-26 10:34 36.97134 -113.46637 28780 ft 543 kts 52°
2026-04-26 10:35 37.01509 -113.38938 28768 ft 543 kts 52°
2026-04-26 10:35 37.05878 -113.31232 28755 ft 543 kts 52°
2026-04-26 10:36 37.10219 -113.23559 28759 ft 544 kts 52°
2026-04-26 10:36 37.14586 -113.15822 28771 ft 544 kts 52°
2026-04-26 10:37 37.18952 -113.08069 28757 ft 544 kts 52°
2026-04-26 10:37 37.23313 -113.00305 28738 ft 545 kts 53°
2026-04-26 10:38 37.27675 -112.92523 28705 ft 545 kts 53°
2026-04-26 10:38 37.32034 -112.84727 28686 ft 545 kts 53°
2026-04-26 10:39 37.36385 -112.76928 28684 ft 545 kts 53°
2026-04-26 10:39 37.40728 -112.69123 28704 ft 544 kts 53°
2026-04-26 10:40 37.45059 -112.61323 28675 ft 543 kts 53°
2026-04-26 10:40 37.49351 -112.53574 28699 ft 542 kts 53°
2026-04-26 10:41 37.53651 -112.45794 28729 ft 541 kts 53°
2026-04-26 10:41 37.57944 -112.38008 28787 ft 540 kts 53°
2026-04-26 10:42 37.62522 -112.30556 28828 ft 535 kts 41°
2026-04-26 10:42 37.68311 -112.24800 28863 ft 527 kts 26°
2026-04-26 10:43 37.74807 -112.20679 28855 ft 523 kts 21°
2026-04-26 10:43 37.81390 -112.16714 28848 ft 524 kts 21°
2026-04-26 10:44 37.87953 -112.12687 28809 ft 525 kts 21°
2026-04-26 10:44 37.94510 -112.08596 28751 ft 525 kts 22°
2026-04-26 10:45 38.01050 -112.04491 28710 ft 524 kts 22°
2026-04-26 10:45 38.07581 -112.00387 28686 ft 523 kts 22°
2026-04-26 10:46 38.14092 -111.96291 28686 ft 522 kts 22°
2026-04-26 10:46 38.20595 -111.92194 28681 ft 521 kts 22°
2026-04-26 10:47 38.27091 -111.88093 28669 ft 521 kts 22°
2026-04-26 10:47 38.33537 -111.84017 28671 ft 520 kts 22°
2026-04-26 10:48 38.40007 -111.79917 28682 ft 519 kts 22°
2026-04-26 10:48 38.46476 -111.75807 28678 ft 518 kts 22°
2026-04-26 10:49 38.52933 -111.71698 28668 ft 518 kts 22°
2026-04-26 10:49 38.59381 -111.67587 28662 ft 518 kts 22°
2026-04-26 10:50 38.64738 -111.64164 28663 ft 517 kts 22°
2026-04-26 10:50 38.72259 -111.59351 28665 ft 517 kts 22°
2026-04-26 10:51 38.81906 -111.53158 28656 ft 517 kts 22°
2026-04-26 10:52 38.88333 -111.49021 28650 ft 517 kts 22°
2026-04-26 10:52 38.94762 -111.44876 28656 ft 517 kts 22°
2026-04-26 10:53 39.01146 -111.40751 28647 ft 517 kts 22°
2026-04-26 10:53 39.07577 -111.36589 28652 ft 517 kts 22°
2026-04-26 10:54 39.17203 -111.30339 28652 ft 516 kts 22°
2026-04-26 10:54 39.23612 -111.26169 28658 ft 516 kts 22°
2026-04-26 10:55 39.30019 -111.21990 28659 ft 516 kts 22°
2026-04-26 10:55 39.35343 -111.18511 28655 ft 516 kts 22°
2026-04-26 10:56 39.42823 -111.13614 28660 ft 516 kts 22°
2026-04-26 10:56 39.49221 -111.09415 28694 ft 516 kts 22°
2026-04-26 10:57 39.55615 -111.05211 28714 ft 515 kts 22°
2026-04-26 10:57 39.61963 -111.01029 28743 ft 514 kts 22°
2026-04-26 10:58 39.68338 -110.96819 28750 ft 514 kts 22°
2026-04-26 10:58 39.74719 -110.92597 28743 ft 514 kts 22°
2026-04-26 10:59 39.81086 -110.88375 28736 ft 514 kts 22°
2026-04-26 10:59 39.87458 -110.84141 28715 ft 514 kts 22°
2026-04-26 11:00 39.93830 -110.79899 28692 ft 514 kts 22°
2026-04-26 11:00 40.00202 -110.75646 28696 ft 515 kts 22°
2026-04-26 11:01 40.06587 -110.71377 28678 ft 515 kts 22°
2026-04-26 11:01 40.12964 -110.67107 28691 ft 515 kts 22°
2026-04-26 11:02 40.19344 -110.62821 28711 ft 515 kts 22°
2026-04-26 11:02 40.25722 -110.58529 28709 ft 516 kts 22°
2026-04-26 11:03 40.32103 -110.54225 28709 ft 515 kts 22°
2026-04-26 11:03 40.38478 -110.49917 28693 ft 515 kts 22°
2026-04-26 11:04 40.44851 -110.45600 28706 ft 515 kts 22°
2026-04-26 11:04 40.51224 -110.41276 28693 ft 516 kts 22°
2026-04-26 11:05 40.57601 -110.36938 28689 ft 516 kts 22°
2026-04-26 11:05 40.63979 -110.32591 28702 ft 517 kts 23°
2026-04-26 11:06 40.69284 -110.28967 28691 ft 517 kts 23°
2026-04-26 11:06 40.76762 -110.23849 28669 ft 518 kts 23°
2026-04-26 11:07 40.83148 -110.19466 28673 ft 518 kts 23°
2026-04-26 11:07 40.89549 -110.15064 28658 ft 518 kts 23°
2026-04-26 11:08 40.95907 -110.10683 28651 ft 519 kts 23°
2026-04-26 11:08 41.02352 -110.06233 28644 ft 519 kts 23°
2026-04-26 11:09 41.08722 -110.01823 28645 ft 520 kts 23°
2026-04-26 11:09 41.14093 -109.98097 28643 ft 520 kts 23°
2026-04-26 11:10 41.21550 -109.92913 28645 ft 521 kts 23°
2026-04-26 11:10 41.26933 -109.89163 28647 ft 521 kts 23°
2026-04-26 11:11 41.33384 -109.84671 28646 ft 528 kts 26°
2026-04-26 11:11 41.39929 -109.80092 28658 ft 534 kts 26°
2026-04-26 11:12 41.46507 -109.75469 28651 ft 535 kts 26°
2026-04-26 11:12 41.53045 -109.70870 28651 ft 535 kts 26°
2026-04-26 11:13 41.59629 -109.66231 28658 ft 535 kts 26°
2026-04-26 11:13 41.66214 -109.61581 28649 ft 535 kts 26°
2026-04-26 11:14 41.72797 -109.56923 28660 ft 535 kts 26°
2026-04-26 11:14 41.79370 -109.52259 28659 ft 535 kts 26°
2026-04-26 11:15 41.85955 -109.47575 28662 ft 535 kts 26°
2026-04-26 11:15 41.92532 -109.42887 28684 ft 535 kts 26°
2026-04-26 11:16 41.99114 -109.38184 28691 ft 535 kts 26°
2026-04-26 11:16 42.05689 -109.33475 28689 ft 535 kts 26°
2026-04-26 11:17 42.12253 -109.28763 28695 ft 535 kts 26°
2026-04-26 11:17 42.18823 -109.24035 28704 ft 535 kts 26°
2026-04-26 11:18 42.25386 -109.19301 28706 ft 535 kts 26°
2026-04-26 11:18 42.31954 -109.14552 28716 ft 535 kts 26°
2026-04-26 11:19 42.38519 -109.09794 28720 ft 535 kts 25°
2026-04-26 11:19 42.45080 -109.05028 28733 ft 536 kts 25°
2026-04-26 11:20 42.50538 -109.01054 28739 ft 536 kts 25°
2026-04-26 11:20 42.58214 -108.95451 28787 ft 536 kts 25°
2026-04-26 11:21 42.64795 -108.90636 28815 ft 537 kts 25°
2026-04-26 11:21 42.71369 -108.85814 28832 ft 537 kts 25°
2026-04-26 11:22 42.77940 -108.80981 28843 ft 537 kts 25°
2026-04-26 11:22 42.84507 -108.76141 28847 ft 537 kts 25°
2026-04-26 11:23 42.91073 -108.71289 28846 ft 537 kts 25°
2026-04-26 11:23 42.97597 -108.66456 28848 ft 537 kts 25°
2026-04-26 11:24 43.04162 -108.61582 28848 ft 537 kts 25°
2026-04-26 11:24 43.10724 -108.56697 28842 ft 537 kts 25°
2026-04-26 11:25 43.17286 -108.51800 28845 ft 537 kts 25°
2026-04-26 11:25 43.23849 -108.46891 28848 ft 537 kts 25°
2026-04-26 11:26 43.30398 -108.41980 28947 ft 536 kts 23°
2026-04-26 11:26 43.36928 -108.37077 28843 ft 533 kts 23°
2026-04-26 11:27 43.43365 -108.32063 28841 ft 533 kts 28°
2026-04-26 11:27 43.49228 -108.25758 28847 ft 537 kts 39°
2026-04-26 11:28 43.54390 -108.18272 28747 ft 539 kts 45°
2026-04-26 11:28 43.59447 -108.10614 28853 ft 541 kts 45°
2026-04-26 11:29 43.64546 -108.02926 28861 ft 545 kts 45°
2026-04-26 11:29 43.69673 -107.95256 28859 ft 548 kts 45°
2026-04-26 11:30 43.74015 -107.88766 28862 ft 549 kts 45°
2026-04-26 11:30 43.80047 -107.79725 28854 ft 549 kts 45°
2026-04-26 11:31 43.85215 -107.71949 28847 ft 548 kts 45°
2026-04-26 11:31 43.90364 -107.64176 28852 ft 547 kts 45°
2026-04-26 11:32 43.95496 -107.56409 28850 ft 546 kts 45°
2026-04-26 11:32 44.00623 -107.48629 28846 ft 545 kts 45°
2026-04-26 11:33 44.05736 -107.40848 28840 ft 545 kts 45°
2026-04-26 11:33 44.10845 -107.33052 28832 ft 546 kts 45°
2026-04-26 11:34 44.15952 -107.25239 28816 ft 546 kts 45°
2026-04-26 11:34 44.21063 -107.17395 28817 ft 547 kts 45°
2026-04-26 11:35 44.26174 -107.09531 28833 ft 547 kts 45°
2026-04-26 11:35 44.30416 -107.02987 28851 ft 546 kts 45°
2026-04-26 11:36 44.36329 -106.93840 28862 ft 546 kts 45°
2026-04-26 11:36 44.41413 -106.85951 28863 ft 546 kts 46°
2026-04-26 11:37 44.46488 -106.78056 28866 ft 546 kts 46°
2026-04-26 11:37 44.51561 -106.70138 28876 ft 546 kts 46°
2026-04-26 11:38 44.56637 -106.62196 28898 ft 547 kts 46°
2026-04-26 11:38 44.61708 -106.54239 28924 ft 548 kts 46°
2026-04-26 11:39 44.66784 -106.46250 28949 ft 548 kts 46°
2026-04-26 11:39 44.71858 -106.38243 28981 ft 549 kts 46°
2026-04-26 11:40 44.76931 -106.30213 28963 ft 549 kts 46°
2026-04-26 11:40 44.81999 -106.22169 28970 ft 549 kts 46°
2026-04-26 11:42 45.02252 -105.89789 28974 ft 550 kts 46°
2026-04-26 11:43 45.07306 -105.81651 28982 ft 551 kts 46°
2026-04-26 11:43 45.12361 -105.73487 28975 ft 552 kts 46°
2026-04-26 11:44 45.17415 -105.65300 28983 ft 552 kts 46°
2026-04-26 11:44 45.22469 -105.57089 28975 ft 553 kts 46°
2026-04-26 11:45 45.27524 -105.48854 28985 ft 554 kts 46°
2026-04-26 11:45 45.32584 -105.40586 28990 ft 554 kts 46°
2026-04-26 11:46 45.37640 -105.32298 28989 ft 555 kts 46°
2026-04-26 11:46 45.42704 -105.23974 29208 ft 558 kts 46°
2026-04-26 11:47 45.45239 -105.19797 29591 ft 557 kts 46°
2026-04-26 11:47 45.47767 -105.15623 30009 ft 555 kts 46°
2026-04-26 11:47 45.50248 -105.11521 30356 ft 553 kts 46°
2026-04-26 11:47 45.52754 -105.07374 30690 ft 552 kts 46°
2026-04-26 11:48 45.55255 -105.03228 30956 ft 551 kts 46°
2026-04-26 11:48 45.57763 -104.99066 30989 ft 553 kts 46°
2026-04-26 11:48 45.62774 -104.90730 31011 ft 552 kts 46°
2026-04-26 11:49 45.67759 -104.82411 31019 ft 550 kts 46°
2026-04-26 11:49 45.72730 -104.74092 31025 ft 550 kts 46°
2026-04-26 11:50 45.77696 -104.65757 31037 ft 550 kts 46°
2026-04-26 11:50 45.82663 -104.57395 31041 ft 552 kts 46°
2026-04-26 11:51 45.87639 -104.48991 31048 ft 553 kts 46°
2026-04-26 11:51 45.92625 -104.40545 31052 ft 554 kts 46°
2026-04-26 11:52 45.96766 -104.33511 31060 ft 555 kts 46°
2026-04-26 11:52 46.02589 -104.23588 31051 ft 555 kts 46°
2026-04-26 11:53 46.07565 -104.15081 31046 ft 555 kts 46°
2026-04-26 11:54 46.15016 -104.02291 31032 ft 555 kts 46°
2026-04-26 11:54 46.19966 -103.93764 31033 ft 554 kts 46°
2026-04-26 11:55 46.24072 -103.86670 31050 ft 554 kts 46°
2026-04-26 11:55 46.29007 -103.78120 31059 ft 553 kts 46°
2026-04-26 11:56 46.33928 -103.69568 31065 ft 553 kts 46°
2026-04-26 11:56 46.38843 -103.60999 31054 ft 553 kts 46°
2026-04-26 11:57 46.43751 -103.52417 31055 ft 553 kts 46°
2026-04-26 11:57 46.48653 -103.43818 31072 ft 553 kts 46°
2026-04-26 11:58 46.53549 -103.35202 31078 ft 553 kts 46°
2026-04-26 11:58 46.58441 -103.26567 31085 ft 553 kts 46°
2026-04-26 11:59 46.63320 -103.17926 31068 ft 553 kts 46°
2026-04-26 11:59 46.68161 -103.09327 31043 ft 552 kts 46°
2026-04-26 12:00 46.73015 -103.00677 31024 ft 551 kts 46°
2026-04-26 12:00 46.77860 -102.92015 31010 ft 550 kts 47°
2026-04-26 12:01 46.82710 -102.83413 31014 ft 546 kts 43°
2026-04-26 12:01 46.88220 -102.75932 31013 ft 537 kts 32°
2026-04-26 12:02 46.94369 -102.69917 31033 ft 528 kts 24°
2026-04-26 12:02 47.00714 -102.64511 31062 ft 528 kts 24°
2026-04-26 12:03 47.07055 -102.59093 31082 ft 527 kts 25°
2026-04-26 12:03 47.13325 -102.53650 31102 ft 527 kts 26°
2026-04-26 12:04 47.19616 -102.48138 31106 ft 526 kts 26°
2026-04-26 12:04 47.25882 -102.42629 31107 ft 525 kts 26°
2026-04-26 12:05 47.32147 -102.37110 31115 ft 524 kts 26°
2026-04-26 12:05 47.38392 -102.31597 31116 ft 523 kts 26°
2026-04-26 12:06 47.44625 -102.26080 31124 ft 522 kts 27°
2026-04-26 12:06 47.50853 -102.20552 31120 ft 521 kts 27°
2026-04-26 12:07 47.57066 -102.15020 31124 ft 521 kts 27°
2026-04-26 12:07 47.63262 -102.09489 31129 ft 520 kts 27°
2026-04-26 12:08 47.69455 -102.03944 31125 ft 519 kts 27°
2026-04-26 12:08 47.75598 -101.98429 31116 ft 518 kts 27°
2026-04-26 12:09 47.81762 -101.92880 31133 ft 518 kts 27°
2026-04-26 12:09 47.87917 -101.87323 31136 ft 517 kts 28°
2026-04-26 12:10 47.94065 -101.81757 31136 ft 516 kts 28°
2026-04-26 12:10 48.00198 -101.76189 31128 ft 516 kts 28°
2026-04-26 12:11 48.06327 -101.70608 31121 ft 515 kts 28°
2026-04-26 12:11 48.12441 -101.65027 31117 ft 515 kts 28°
2026-04-26 12:12 48.18548 -101.59435 31105 ft 514 kts 28°
2026-04-26 12:12 48.24643 -101.53838 31098 ft 513 kts 28°
2026-04-26 12:13 48.30731 -101.48232 31070 ft 513 kts 28°
2026-04-26 12:13 48.36812 -101.42617 31058 ft 513 kts 28°
2026-04-26 12:14 48.42886 -101.36992 31057 ft 513 kts 28°
2026-04-26 12:14 48.48954 -101.31357 31062 ft 512 kts 29°
2026-04-26 12:15 48.55027 -101.25701 31076 ft 513 kts 29°
2026-04-26 12:15 48.61088 -101.20039 31097 ft 513 kts 29°
2026-04-26 12:16 48.67159 -101.14353 31120 ft 513 kts 29°
2026-04-26 12:16 48.73227 -101.08653 31145 ft 514 kts 29°
2026-04-26 12:17 48.79298 -101.02933 31145 ft 514 kts 29°
2026-04-26 12:17 48.85371 -100.97195 31140 ft 514 kts 29°
2026-04-26 12:18 48.91404 -100.91477 31145 ft 515 kts 29°
2026-04-26 12:18 48.97478 -100.85705 31151 ft 515 kts 29°
2026-04-26 12:19 49.03558 -100.79911 31135 ft 515 kts 29°
2026-04-26 12:19 49.09638 -100.74098 31149 ft 516 kts 29°
2026-04-26 12:20 49.15710 -100.68274 31151 ft 516 kts 29°
2026-04-26 12:20 49.21783 -100.62432 31142 ft 516 kts 29°
2026-04-26 12:21 49.27854 -100.56574 31141 ft 516 kts 29°
2026-04-26 12:21 49.33926 -100.50699 31143 ft 516 kts 29°
2026-04-26 12:22 49.39989 -100.44814 31138 ft 516 kts 29°
2026-04-26 12:22 49.46056 -100.38908 31140 ft 516 kts 29°
2026-04-26 12:23 49.52121 -100.32987 31139 ft 516 kts 29°
2026-04-26 12:23 49.58186 -100.27048 31138 ft 516 kts 29°
2026-04-26 12:24 49.64249 -100.21093 31130 ft 517 kts 29°
2026-04-26 12:24 49.70278 -100.15154 31107 ft 517 kts 29°
2026-04-26 12:25 49.79375 -100.06158 31078 ft 518 kts 29°
2026-04-26 12:25 49.85444 -100.00133 31065 ft 519 kts 29°
2026-04-26 12:26 49.91505 -99.94020 31068 ft 521 kts 32°
2026-04-26 12:26 49.97223 -99.87075 31070 ft 523 kts 36°
2026-04-26 12:27 50.02875 -99.79910 31082 ft 524 kts 36°
2026-04-26 12:27 50.08538 -99.72747 31093 ft 525 kts 36°
2026-04-26 12:28 50.14216 -99.65607 31108 ft 525 kts 35°
2026-04-26 12:28 50.19910 -99.58448 31118 ft 526 kts 35°
2026-04-26 12:29 50.25604 -99.51266 31110 ft 526 kts 36°
2026-04-26 12:30 50.34146 -99.40441 31107 ft 527 kts 36°
2026-04-26 12:30 50.39838 -99.33197 31103 ft 527 kts 36°
2026-04-26 12:31 50.48373 -99.22292 31100 ft 528 kts 36°
2026-04-26 12:31 50.54028 -99.15038 31098 ft 528 kts 36°
2026-04-26 12:32 50.59713 -99.07722 31096 ft 528 kts 36°
2026-04-26 12:33 50.68229 -98.96718 31097 ft 528 kts 36°
2026-04-26 12:33 50.73903 -98.89357 31092 ft 528 kts 36°
2026-04-26 12:34 50.79577 -98.81973 31094 ft 528 kts 36°
2026-04-26 12:34 50.85245 -98.74572 31088 ft 528 kts 36°
2026-04-26 12:35 50.90908 -98.67153 31092 ft 529 kts 36°
2026-04-26 12:35 50.96576 -98.59704 31092 ft 529 kts 36°
2026-04-26 12:36 51.02205 -98.52282 31076 ft 529 kts 36°
2026-04-26 12:36 51.07869 -98.44789 31098 ft 530 kts 37°
2026-04-26 12:37 51.13525 -98.37282 31102 ft 530 kts 37°
2026-04-26 12:37 51.19191 -98.29736 31091 ft 531 kts 37°
2026-04-26 12:38 51.24855 -98.22169 31096 ft 531 kts 37°
2026-04-26 12:38 51.30521 -98.14573 31090 ft 532 kts 37°
2026-04-26 12:39 51.36188 -98.06951 31089 ft 533 kts 37°
2026-04-26 12:39 51.41857 -97.99300 31088 ft 533 kts 37°
2026-04-26 12:40 51.47527 -97.91622 31081 ft 534 kts 37°
2026-04-26 12:40 51.53200 -97.83913 31084 ft 534 kts 37°
2026-04-26 12:41 51.58868 -97.76187 31087 ft 534 kts 38°
2026-04-26 12:41 51.64536 -97.68433 31083 ft 534 kts 38°
2026-04-26 12:42 51.70193 -97.60668 31083 ft 535 kts 38°
2026-04-26 12:42 51.75815 -97.52925 31082 ft 535 kts 38°
2026-04-26 12:43 51.81470 -97.45111 31085 ft 535 kts 38°
2026-04-26 12:43 51.87126 -97.37266 31086 ft 536 kts 38°
2026-04-26 12:44 51.92781 -97.29397 31084 ft 536 kts 38°
2026-04-26 12:44 51.97515 -97.22789 31087 ft 536 kts 39°
2026-04-26 12:45 52.03165 -97.14877 31089 ft 536 kts 39°
2026-04-26 12:45 52.08768 -97.07003 31081 ft 536 kts 39°
2026-04-26 12:46 52.14409 -96.99048 31069 ft 537 kts 39°
2026-04-26 12:46 52.20046 -96.91072 31069 ft 537 kts 39°
2026-04-26 12:47 52.25680 -96.83070 31069 ft 537 kts 39°
2026-04-26 12:47 52.31310 -96.75048 31074 ft 537 kts 39°
2026-04-26 12:48 52.36837 -96.66829 31063 ft 537 kts 43°
2026-04-26 12:48 52.42153 -96.58230 31080 ft 537 kts 44°
2026-04-26 12:49 52.47433 -96.49550 31080 ft 537 kts 44°
2026-04-26 12:49 52.52728 -96.40882 31064 ft 537 kts 44°
2026-04-26 12:50 52.58029 -96.32227 31070 ft 537 kts 44°
2026-04-26 12:50 52.63326 -96.23561 31082 ft 537 kts 44°
2026-04-26 12:51 52.68611 -96.14879 31083 ft 536 kts 45°
2026-04-26 12:51 52.73887 -96.06177 31073 ft 536 kts 45°
2026-04-26 12:52 52.79147 -95.97467 31073 ft 536 kts 45°
2026-04-26 12:52 52.84407 -95.88726 31077 ft 535 kts 45°
2026-04-26 12:53 52.89622 -95.80027 31088 ft 535 kts 45°
2026-04-26 12:53 52.94860 -95.71260 31069 ft 535 kts 45°
2026-04-26 12:54 53.00083 -95.62486 31070 ft 535 kts 45°
2026-04-26 12:54 53.05300 -95.53689 31083 ft 534 kts 46°
2026-04-26 12:55 53.10513 -95.44867 31078 ft 534 kts 46°
2026-04-26 12:55 53.15716 -95.36029 31063 ft 534 kts 46°
2026-04-26 12:56 53.20874 -95.27234 31074 ft 534 kts 46°
2026-04-26 12:56 53.26067 -95.18350 31080 ft 534 kts 46°
2026-04-26 12:57 53.31242 -95.09461 31068 ft 534 kts 46°
2026-04-26 12:57 53.36409 -95.00555 31072 ft 533 kts 47°
2026-04-26 12:58 53.44151 -94.87147 31066 ft 533 kts 47°
2026-04-26 12:58 53.49302 -94.78185 31069 ft 533 kts 47°
2026-04-26 12:59 53.54441 -94.69210 31060 ft 532 kts 47°
2026-04-26 12:59 53.59567 -94.60223 31056 ft 532 kts 47°
2026-04-26 13:00 53.64663 -94.51256 31047 ft 532 kts 47°
2026-04-26 13:00 53.69773 -94.42232 31043 ft 532 kts 47°
2026-04-26 13:01 53.74878 -94.33183 31038 ft 532 kts 47°
2026-04-26 13:01 53.79976 -94.24110 31048 ft 531 kts 48°
2026-04-26 13:02 53.85056 -94.15035 31065 ft 531 kts 48°
2026-04-26 13:02 53.90131 -94.05936 31072 ft 531 kts 48°
2026-04-26 13:03 53.95206 -93.96803 31067 ft 531 kts 48°
2026-04-26 13:03 54.00261 -93.87671 31073 ft 531 kts 48°
2026-04-26 13:04 54.05313 -93.78509 31068 ft 530 kts 48°
2026-04-26 13:04 54.10344 -93.69351 31072 ft 529 kts 49°
2026-04-26 13:05 54.15372 -93.60164 31068 ft 529 kts 49°
2026-04-26 13:05 54.20376 -93.50983 31069 ft 528 kts 49°
2026-04-26 13:06 54.25373 -93.41783 31064 ft 528 kts 49°
2026-04-26 13:06 54.30357 -93.32569 31064 ft 527 kts 49°
2026-04-26 13:07 54.35330 -93.23343 31067 ft 526 kts 49°
2026-04-26 13:07 54.40255 -93.14169 31067 ft 526 kts 49°
2026-04-26 13:08 54.45207 -93.04911 31062 ft 525 kts 49°
2026-04-26 13:08 54.50142 -92.95646 31066 ft 525 kts 49°
2026-04-26 13:09 54.55069 -92.86364 31059 ft 524 kts 49°
2026-04-26 13:09 54.59977 -92.77079 31055 ft 524 kts 50°
2026-04-26 13:10 54.64879 -92.67772 31054 ft 523 kts 50°
2026-04-26 13:10 54.69733 -92.58519 31068 ft 522 kts 50°
2026-04-26 13:11 54.74604 -92.49198 31060 ft 521 kts 50°
2026-04-26 13:11 54.79457 -92.39875 31062 ft 520 kts 50°
2026-04-26 13:12 54.84289 -92.30556 31056 ft 519 kts 50°
2026-04-26 13:12 54.89106 -92.21230 31059 ft 518 kts 50°
2026-04-26 13:13 54.93902 -92.11909 31055 ft 517 kts 51°
2026-04-26 13:13 54.98792 -92.02846 31054 ft 517 kts 44°
2026-04-26 13:14 55.04493 -91.95182 31050 ft 519 kts 33°
2026-04-26 13:14 55.10720 -91.88802 31054 ft 518 kts 32°
2026-04-26 13:15 55.16965 -91.82535 31057 ft 517 kts 32°
2026-04-26 13:15 55.22135 -91.77276 31055 ft 517 kts 32°
2026-04-26 13:16 55.29378 -91.69800 31054 ft 517 kts 33°
2026-04-26 13:16 55.35559 -91.63371 31051 ft 516 kts 33°
2026-04-26 13:17 55.44830 -91.53687 31057 ft 517 kts 33°
2026-04-26 13:18 55.54065 -91.43995 31054 ft 517 kts 34°
2026-04-26 13:19 55.63334 -91.34215 31058 ft 517 kts 34°
2026-04-26 13:19 55.69505 -91.27673 31061 ft 517 kts 34°
2026-04-26 13:20 55.75683 -91.21099 31058 ft 517 kts 34°
2026-04-26 13:20 55.81849 -91.14513 31065 ft 517 kts 34°
2026-04-26 13:21 55.88016 -91.07901 31063 ft 517 kts 34°
2026-04-26 13:21 55.94176 -91.01273 31068 ft 517 kts 34°
2026-04-26 13:22 56.00337 -90.94618 31069 ft 517 kts 34°
2026-04-26 13:22 56.06491 -90.87946 31065 ft 517 kts 35°
2026-04-26 13:23 56.12643 -90.81250 31069 ft 517 kts 35°
2026-04-26 13:23 56.18741 -90.74589 31070 ft 517 kts 35°
2026-04-26 13:24 56.24873 -90.67864 31072 ft 516 kts 35°
2026-04-26 13:24 56.30998 -90.61121 31077 ft 516 kts 35°
2026-04-26 13:25 56.37118 -90.54359 31078 ft 515 kts 35°
2026-04-26 13:25 56.43224 -90.47587 31081 ft 515 kts 35°
2026-04-26 13:26 56.49327 -90.40791 31084 ft 514 kts 36°
2026-04-26 13:26 56.55415 -90.33987 31088 ft 514 kts 36°
2026-04-26 13:27 56.61500 -90.27159 31087 ft 514 kts 36°
2026-04-26 13:27 56.67577 -90.20314 31100 ft 514 kts 36°
2026-04-26 13:28 56.73612 -90.13491 31100 ft 514 kts 36°
2026-04-26 13:28 56.79673 -90.06612 31098 ft 513 kts 36°
2026-04-26 13:29 56.85733 -89.99708 31094 ft 513 kts 36°
2026-04-26 13:29 56.91784 -89.92786 31101 ft 513 kts 36°
2026-04-26 13:30 56.97831 -89.85843 31097 ft 513 kts 36°
2026-04-26 13:30 57.03876 -89.78874 31101 ft 513 kts 36°
2026-04-26 13:31 57.09875 -89.71932 31104 ft 513 kts 36°
2026-04-26 13:31 57.15912 -89.64920 31107 ft 513 kts 36°
2026-04-26 13:32 57.21945 -89.57883 31103 ft 513 kts 36°
2026-04-26 13:32 57.27975 -89.50823 31107 ft 513 kts 37°
2026-04-26 13:33 57.33996 -89.43747 31106 ft 512 kts 37°
2026-04-26 13:33 57.40008 -89.36652 31116 ft 512 kts 37°
2026-04-26 13:34 57.46006 -89.29547 31108 ft 511 kts 37°
2026-04-26 13:34 57.51990 -89.22429 31116 ft 510 kts 37°
2026-04-26 13:35 57.57960 -89.15299 31125 ft 510 kts 37°
2026-04-26 13:35 57.62918 -89.09357 31104 ft 509 kts 37°
2026-04-26 13:36 57.68872 -89.02195 31117 ft 509 kts 37°
2026-04-26 13:36 57.75792 -88.93835 31123 ft 509 kts 37°
2026-04-26 13:37 57.80773 -88.87794 31121 ft 509 kts 37°
2026-04-26 13:37 57.86682 -88.80602 31128 ft 509 kts 38°
2026-04-26 13:38 57.92626 -88.73337 31127 ft 510 kts 38°
2026-04-26 13:38 57.98568 -88.66045 31128 ft 510 kts 38°
2026-04-26 13:39 58.04510 -88.58725 31130 ft 510 kts 38°
2026-04-26 13:39 58.10448 -88.51380 31136 ft 510 kts 38°
2026-04-26 13:40 58.16387 -88.44004 31137 ft 511 kts 38°
2026-04-26 13:40 58.22328 -88.36596 31140 ft 511 kts 38°
2026-04-26 13:41 58.28256 -88.29173 31147 ft 511 kts 38°
2026-04-26 13:41 58.34187 -88.21717 31149 ft 511 kts 38°
2026-04-26 13:42 58.40109 -88.14242 31149 ft 511 kts 38°
2026-04-26 13:42 58.45993 -88.06784 31160 ft 510 kts 38°
2026-04-26 13:43 58.51941 -87.99213 31157 ft 510 kts 38°
2026-04-26 13:43 58.57812 -87.91711 31164 ft 510 kts 38°
2026-04-26 13:44 58.63715 -87.84135 31165 ft 510 kts 38°
2026-04-26 13:44 58.69614 -87.76533 31171 ft 510 kts 38°
2026-04-26 13:45 58.75504 -87.68912 31176 ft 510 kts 39°
2026-04-26 13:45 58.81392 -87.61261 31176 ft 510 kts 39°
2026-04-26 13:46 58.87276 -87.53585 31181 ft 510 kts 39°
2026-04-26 13:46 58.93164 -87.45870 31189 ft 511 kts 39°
2026-04-26 13:47 58.99042 -87.38136 31198 ft 511 kts 39°
2026-04-26 13:47 59.04918 -87.30373 31197 ft 511 kts 39°
2026-04-26 13:48 59.10755 -87.22627 31205 ft 511 kts 39°
2026-04-26 13:48 59.16627 -87.14803 31217 ft 512 kts 39°
2026-04-26 13:49 59.22503 -87.06941 31219 ft 512 kts 40°
2026-04-26 13:49 59.28373 -86.99053 31209 ft 513 kts 40°
2026-04-26 13:50 59.34252 -86.91120 31220 ft 513 kts 40°
2026-04-26 13:50 59.40120 -86.83166 31224 ft 513 kts 40°
2026-04-26 13:51 59.45985 -86.75184 31227 ft 513 kts 40°
2026-04-26 13:51 59.51849 -86.67166 31231 ft 513 kts 40°
2026-04-26 13:52 59.57675 -86.59168 31234 ft 513 kts 40°
2026-04-26 13:52 59.63529 -86.51097 31243 ft 514 kts 41°
2026-04-26 13:53 59.69386 -86.42986 31250 ft 514 kts 41°
2026-04-26 13:53 59.75239 -86.34844 31253 ft 514 kts 41°
2026-04-26 13:54 59.81092 -86.26667 31257 ft 514 kts 41°
2026-04-26 13:54 59.86940 -86.18460 31260 ft 515 kts 41°
2026-04-26 13:55 59.94729 -86.07474 31278 ft 515 kts 41°
2026-04-26 13:56 60.04578 -85.93815 31284 ft 519 kts 39°
2026-04-26 13:56 60.10691 -85.86096 31283 ft 520 kts 38°
2026-04-26 13:57 60.16815 -85.78379 31291 ft 520 kts 38°
2026-04-26 13:57 60.22913 -85.70551 31295 ft 520 kts 38°
2026-04-26 13:58 60.28952 -85.62698 31298 ft 520 kts 39°
2026-04-26 13:58 60.35027 -85.54751 31306 ft 520 kts 39°
2026-04-26 13:59 60.41102 -85.46774 31314 ft 521 kts 39°
2026-04-26 13:59 60.47170 -85.38776 31317 ft 521 kts 38°
2026-04-26 14:00 60.59318 -85.22658 31326 ft 521 kts 38°
2026-04-26 14:01 60.65388 -85.14550 31332 ft 522 kts 38°
2026-04-26 14:01 60.71417 -85.06458 31333 ft 522 kts 38°
2026-04-26 14:02 60.77480 -84.98283 31337 ft 522 kts 38°
2026-04-26 14:02 60.83543 -84.90071 31340 ft 522 kts 38°
2026-04-26 14:03 60.89603 -84.81823 31345 ft 523 kts 38°
2026-04-26 14:03 60.95656 -84.73549 31354 ft 523 kts 38°
2026-04-26 14:04 61.01711 -84.65232 31352 ft 523 kts 38°
2026-04-26 14:04 61.07728 -84.56930 31361 ft 523 kts 38°
2026-04-26 14:05 61.13780 -84.48539 31365 ft 524 kts 38°
2026-04-26 14:05 61.19822 -84.40124 31375 ft 524 kts 38°
2026-04-26 14:06 61.25877 -84.31651 31376 ft 524 kts 38°
2026-04-26 14:06 61.31920 -84.23155 31390 ft 525 kts 38°
2026-04-26 14:07 61.37969 -84.14609 31392 ft 525 kts 37°
2026-04-26 14:07 61.44015 -84.06027 31396 ft 525 kts 37°
2026-04-26 14:08 61.50050 -83.97419 31397 ft 525 kts 37°
2026-04-26 14:08 61.56039 -83.88838 31405 ft 525 kts 37°
2026-04-26 14:09 61.62060 -83.80167 31411 ft 525 kts 37°
2026-04-26 14:09 61.68081 -83.71455 31419 ft 525 kts 37°
2026-04-26 14:10 61.74087 -83.62723 31426 ft 525 kts 37°
2026-04-26 14:10 61.80094 -83.53949 31431 ft 525 kts 37°
2026-04-26 14:11 61.89099 -83.40714 31439 ft 525 kts 37°
2026-04-26 14:11 61.95092 -83.31852 31444 ft 525 kts 37°
2026-04-26 14:12 62.01080 -83.22954 31457 ft 525 kts 37°
2026-04-26 14:12 62.07059 -83.14026 31460 ft 525 kts 37°
2026-04-26 14:13 62.15994 -83.00602 31467 ft 526 kts 37°
2026-04-26 14:14 62.21970 -82.91568 31470 ft 526 kts 37°
2026-04-26 14:14 62.27945 -82.82489 31478 ft 526 kts 37°
2026-04-26 14:15 62.33922 -82.73364 31485 ft 527 kts 37°
2026-04-26 14:15 62.39894 -82.64202 31492 ft 527 kts 37°
2026-04-26 14:16 62.45861 -82.55002 31500 ft 527 kts 36°
2026-04-26 14:16 62.51827 -82.45754 31502 ft 527 kts 36°
2026-04-26 14:17 62.57787 -82.36472 31509 ft 527 kts 36°
2026-04-26 14:17 62.63733 -82.27163 31517 ft 527 kts 36°
2026-04-26 14:18 62.69683 -82.17800 31517 ft 527 kts 36°
2026-04-26 14:18 62.75621 -82.08410 31529 ft 527 kts 36°
2026-04-26 14:19 62.81555 -81.98978 31531 ft 527 kts 36°
2026-04-26 14:19 62.87487 -81.89502 31537 ft 528 kts 36°
2026-04-26 14:20 62.93414 -81.79983 31538 ft 528 kts 36°
2026-04-26 14:20 62.99335 -81.70426 31547 ft 528 kts 36°
2026-04-26 14:21 63.05215 -81.60886 31552 ft 528 kts 36°
2026-04-26 14:21 63.11132 -81.51237 31556 ft 529 kts 36°
2026-04-26 14:22 63.17044 -81.41547 31562 ft 529 kts 36°
2026-04-26 14:22 63.22950 -81.31814 31563 ft 529 kts 36°
2026-04-26 14:23 63.28851 -81.22040 31569 ft 529 kts 36°
2026-04-26 14:23 63.34757 -81.12206 31575 ft 530 kts 36°
2026-04-26 14:24 63.40645 -81.02350 31578 ft 530 kts 36°
2026-04-26 14:24 63.46532 -80.92445 31584 ft 530 kts 36°
2026-04-26 14:25 63.52413 -80.82496 31587 ft 530 kts 35°
2026-04-26 14:25 63.58293 -80.72495 31593 ft 530 kts 35°
2026-04-26 14:26 63.64167 -80.62454 31601 ft 530 kts 35°
2026-04-26 14:26 63.69987 -80.52449 31605 ft 530 kts 35°
2026-04-26 14:27 63.75849 -80.42319 31618 ft 530 kts 35°
2026-04-26 14:27 63.81703 -80.32150 31619 ft 530 kts 35°
2026-04-26 14:28 63.87548 -80.21937 31617 ft 530 kts 35°
2026-04-26 14:28 63.93385 -80.11692 31617 ft 530 kts 35°
2026-04-26 14:29 63.98054 -80.02619 31619 ft 533 kts 44°
2026-04-26 14:29 64.02730 -79.89458 31634 ft 537 kts 56°
2026-04-26 14:30 64.07045 -79.72253 31632 ft 538 kts 60°
2026-04-26 14:30 64.10062 -79.59691 31629 ft 538 kts 60°
2026-04-26 14:31 64.13691 -79.44681 31629 ft 539 kts 59°
2026-04-26 14:31 64.17327 -79.29747 31631 ft 540 kts 59°
2026-04-26 14:32 64.20985 -79.14687 31630 ft 541 kts 59°
2026-04-26 14:32 64.24631 -78.99560 31630 ft 541 kts 59°
2026-04-26 14:33 64.28267 -78.84357 31635 ft 542 kts 59°
2026-04-26 14:33 64.31885 -78.69112 31632 ft 543 kts 59°
2026-04-26 14:34 64.35495 -78.53795 31633 ft 543 kts 59°
2026-04-26 14:34 64.39091 -78.38428 31635 ft 544 kts 59°
2026-04-26 14:35 64.42672 -78.23020 31634 ft 545 kts 59°
2026-04-26 14:35 64.46247 -78.07528 31638 ft 545 kts 59°
2026-04-26 14:36 64.49811 -77.91971 31638 ft 546 kts 59°
2026-04-26 14:36 64.53337 -77.76468 31639 ft 547 kts 59°
2026-04-26 14:37 64.56875 -77.60797 31631 ft 547 kts 59°
2026-04-26 14:37 64.60401 -77.45065 31642 ft 548 kts 59°
2026-04-26 14:38 64.63912 -77.29285 31645 ft 548 kts 59°
2026-04-26 14:38 64.67407 -77.13464 31650 ft 549 kts 59°
2026-04-26 14:39 64.70887 -76.97589 31650 ft 549 kts 59°
2026-04-26 14:39 64.74352 -76.81663 31656 ft 549 kts 59°
2026-04-26 14:40 64.77802 -76.65692 31657 ft 550 kts 59°
2026-04-26 14:40 64.81241 -76.49651 31658 ft 550 kts 59°
2026-04-26 14:41 64.84664 -76.33556 31652 ft 551 kts 59°
2026-04-26 14:41 64.88071 -76.17415 31654 ft 551 kts 59°
2026-04-26 14:42 64.91448 -76.01295 31650 ft 552 kts 59°
2026-04-26 14:42 64.94831 -75.85025 31651 ft 553 kts 59°
2026-04-26 14:43 64.98198 -75.68700 31659 ft 553 kts 59°
2026-04-26 14:43 65.01550 -75.52320 31658 ft 554 kts 59°
2026-04-26 14:44 65.04894 -75.35851 31650 ft 555 kts 59°
2026-04-26 14:44 65.08225 -75.19314 31653 ft 555 kts 59°
2026-04-26 14:45 65.11533 -75.02760 31658 ft 556 kts 59°
2026-04-26 14:45 65.14826 -74.86150 31657 ft 556 kts 59°
2026-04-26 14:46 65.18102 -74.69486 31637 ft 556 kts 59°
2026-04-26 14:46 65.21362 -74.52770 31648 ft 556 kts 59°
2026-04-26 14:47 65.24599 -74.36036 31647 ft 556 kts 59°
2026-04-26 14:47 65.27800 -74.19359 31646 ft 556 kts 59°
2026-04-26 14:48 65.31005 -74.02520 31647 ft 557 kts 59°
2026-04-26 14:48 65.34196 -73.85610 31641 ft 557 kts 59°
2026-04-26 14:49 65.37368 -73.68657 31645 ft 558 kts 59°
2026-04-26 14:49 65.40526 -73.51640 31642 ft 558 kts 60°
2026-04-26 14:50 65.43665 -73.34583 31639 ft 559 kts 60°
2026-04-26 14:50 65.46789 -73.17458 31639 ft 559 kts 60°
2026-04-26 14:51 65.49895 -73.00288 31633 ft 560 kts 60°
2026-04-26 14:51 65.52984 -72.83060 31633 ft 560 kts 60°
2026-04-26 14:52 65.56056 -72.65781 31633 ft 560 kts 60°
2026-04-26 14:52 65.59107 -72.48464 31633 ft 561 kts 60°
2026-04-26 14:53 65.62126 -72.31179 31618 ft 561 kts 60°
2026-04-26 14:53 65.65137 -72.13782 31618 ft 560 kts 60°
2026-04-26 14:54 65.68132 -71.96328 31616 ft 560 kts 60°
2026-04-26 14:54 65.71104 -71.78849 31623 ft 560 kts 60°
2026-04-26 14:55 65.74062 -71.61298 31621 ft 561 kts 60°
2026-04-26 14:55 65.76996 -71.43725 31622 ft 561 kts 60°
2026-04-26 14:56 65.79908 -71.26122 31622 ft 560 kts 60°
2026-04-26 14:56 65.82802 -71.08465 31608 ft 560 kts 60°
2026-04-26 14:57 65.85672 -70.90794 31600 ft 560 kts 60°
2026-04-26 14:57 65.88501 -70.73210 31603 ft 559 kts 60°
2026-04-26 14:58 65.91334 -70.55451 31610 ft 563 kts 60°
2026-04-26 14:58 65.94184 -70.37427 31593 ft 569 kts 60°
2026-04-26 14:59 65.97008 -70.19328 31583 ft 567 kts 60°
2026-04-26 14:59 65.99810 -70.01250 31579 ft 566 kts 60°
2026-04-26 15:00 66.02447 -69.82992 31576 ft 568 kts 63°
2026-04-26 15:00 66.04887 -69.64480 31578 ft 569 kts 64°
2026-04-26 15:01 66.07302 -69.45944 31572 ft 568 kts 64°
2026-04-26 15:01 66.09718 -69.27536 31563 ft 568 kts 63°
2026-04-26 15:02 66.12149 -69.08968 31551 ft 568 kts 63°
2026-04-26 15:02 66.14559 -68.90370 31560 ft 569 kts 64°
2026-04-26 15:03 66.16941 -68.71738 31556 ft 569 kts 64°
2026-04-26 15:03 66.19303 -68.53044 31544 ft 569 kts 64°
2026-04-26 15:04 66.21642 -68.34321 31545 ft 569 kts 64°
2026-04-26 15:04 66.23955 -68.15569 31540 ft 568 kts 64°
2026-04-26 15:05 66.26246 -67.96799 31536 ft 569 kts 64°
2026-04-26 15:05 66.28525 -67.77936 31963 ft 570 kts 65°
2026-04-26 15:05 66.29634 -67.68638 32295 ft 568 kts 65°
2026-04-26 15:06 66.30747 -67.59247 32666 ft 565 kts 65°
2026-04-26 15:06 66.31855 -67.49854 32966 ft 564 kts 65°
2026-04-26 15:06 66.32955 -67.40495 33233 ft 564 kts 65°
2026-04-26 15:06 66.34051 -67.31117 33424 ft 565 kts 65°
2026-04-26 15:07 66.36228 -67.12320 33495 ft 563 kts 65°
2026-04-26 15:07 66.38365 -66.93592 33495 ft 561 kts 65°
2026-04-26 15:08 66.40479 -66.74861 33490 ft 560 kts 65°
2026-04-26 15:08 66.42570 -66.56115 33479 ft 561 kts 65°
2026-04-26 15:09 66.44638 -66.37341 33487 ft 560 kts 65°
2026-04-26 15:09 66.46684 -66.18526 33491 ft 561 kts 66°
2026-04-26 15:10 66.48372 -66.02826 33477 ft 562 kts 66°
2026-04-26 15:10 66.50716 -65.80735 33486 ft 561 kts 66°
2026-04-26 15:11 66.52698 -65.61780 33454 ft 562 kts 66°
2026-04-26 15:11 66.54651 -65.42824 33460 ft 559 kts 66°
2026-04-26 15:12 66.56571 -65.23933 33490 ft 558 kts 66°
2026-04-26 15:12 66.58461 -65.05182 33442 ft 557 kts 67°
2026-04-26 15:13 66.60328 -64.86347 33483 ft 555 kts 67°
2026-04-26 15:13 66.62173 -64.67474 33504 ft 555 kts 68°
2026-04-26 15:14 66.63998 -64.48563 33487 ft 555 kts 68°
2026-04-26 15:14 66.65796 -64.29655 33496 ft 554 kts 68°
2026-04-26 15:15 66.67570 -64.10739 33504 ft 554 kts 68°
2026-04-26 15:15 66.69321 -63.91809 33504 ft 555 kts 69°
2026-04-26 15:16 66.71048 -63.72835 33507 ft 553 kts 69°
2026-04-26 15:16 66.72743 -63.53938 33521 ft 550 kts 69°
2026-04-26 15:17 66.74132 -63.38259 33492 ft 548 kts 69°
2026-04-26 15:17 66.76052 -63.16263 33503 ft 547 kts 70°
2026-04-26 15:18 66.77667 -62.97465 33505 ft 546 kts 70°
2026-04-26 15:18 66.79254 -62.78681 33502 ft 543 kts 70°
2026-04-26 15:19 66.80816 -62.59946 33495 ft 543 kts 70°
2026-04-26 15:19 66.82358 -62.41152 33474 ft 544 kts 71°
2026-04-26 15:20 66.83874 -62.22323 33483 ft 544 kts 71°
2026-04-26 15:20 66.85361 -62.03617 33482 ft 543 kts 71°
2026-04-26 15:21 66.86594 -61.87847 33475 ft 543 kts 72°
2026-04-26 15:21 66.88045 -61.69023 33455 ft 542 kts 72°
2026-04-26 15:22 66.89471 -61.50186 33454 ft 541 kts 72°
2026-04-26 15:22 66.90873 -61.31363 33447 ft 541 kts 72°
2026-04-26 15:23 66.92243 -61.12657 33434 ft 540 kts 72°
2026-04-26 15:23 66.93605 -60.93736 33438 ft 539 kts 73°
2026-04-26 15:24 66.94926 -60.75063 33431 ft 538 kts 73°
2026-04-26 15:24 66.96232 -60.56260 33422 ft 538 kts 73°
2026-04-26 15:25 66.97515 -60.37445 33418 ft 537 kts 73°
2026-04-26 15:25 66.98776 -60.18651 33416 ft 537 kts 74°
2026-04-26 15:26 67.00104 -59.99925 33404 ft 532 kts 70°
2026-04-26 15:26 67.02298 -59.82044 33412 ft 524 kts 64°
2026-04-26 15:27 67.04729 -59.64462 33389 ft 524 kts 64°
2026-04-26 15:27 67.07123 -59.46835 33386 ft 524 kts 64°
2026-04-26 15:28 67.09465 -59.29126 33382 ft 524 kts 65°
2026-04-26 15:28 67.11770 -59.11381 33375 ft 524 kts 65°
2026-04-26 15:29 67.14056 -58.93600 33362 ft 523 kts 65°
2026-04-26 15:30 67.18551 -58.58126 33349 ft 522 kts 66°
2026-04-26 15:30 67.20774 -58.40308 33342 ft 522 kts 66°
2026-04-26 15:31 67.24069 -58.13546 33331 ft 521 kts 67°
2026-04-26 15:32 67.26954 -57.89737 33318 ft 521 kts 67°
2026-04-26 15:32 67.29440 -57.68934 33314 ft 521 kts 68°
2026-04-26 15:33 67.31559 -57.51001 33304 ft 521 kts 68°
2026-04-26 15:33 67.33656 -57.33043 33301 ft 521 kts 68°
2026-04-26 15:34 67.35734 -57.15048 33291 ft 521 kts 69°
2026-04-26 15:34 67.37791 -56.97019 33287 ft 521 kts 69°
2026-04-26 15:35 67.39829 -56.78957 33287 ft 521 kts 69°
2026-04-26 15:35 67.41848 -56.60857 33269 ft 521 kts 70°
2026-04-26 15:36 67.43847 -56.42718 33266 ft 521 kts 70°
2026-04-26 15:36 67.45825 -56.24554 33260 ft 521 kts 70°
2026-04-26 15:37 67.47785 -56.06339 33254 ft 522 kts 71°
2026-04-26 15:37 67.49713 -55.88209 33246 ft 522 kts 71°
2026-04-26 15:38 67.51630 -55.69947 33241 ft 522 kts 71°
2026-04-26 15:38 67.53528 -55.51647 33228 ft 521 kts 71°
2026-04-26 15:39 67.55405 -55.33329 33215 ft 521 kts 72°
2026-04-26 15:39 67.56948 -55.18083 33211 ft 521 kts 72°
2026-04-26 15:40 67.59093 -54.96626 33200 ft 521 kts 72°
2026-04-26 15:40 67.60908 -54.78211 33196 ft 521 kts 73°
2026-04-26 15:41 67.62688 -54.59916 33188 ft 521 kts 73°
2026-04-26 15:41 67.64459 -54.41474 33181 ft 521 kts 73°
2026-04-26 15:42 67.66208 -54.23013 33178 ft 521 kts 73°
2026-04-26 15:42 67.67935 -54.04528 33161 ft 520 kts 74°
2026-04-26 15:43 67.69641 -53.86024 33161 ft 520 kts 74°
2026-04-26 15:44 67.72159 -53.58244 33154 ft 520 kts 75°
2026-04-26 15:44 67.74631 -53.30374 33144 ft 520 kts 75°
2026-04-26 15:45 67.77055 -53.02464 33127 ft 520 kts 76°
2026-04-26 15:46 67.79426 -52.74543 33122 ft 519 kts 76°
2026-04-26 15:46 67.80720 -52.59048 33117 ft 519 kts 76°
2026-04-26 15:47 67.83273 -52.27899 33111 ft 520 kts 77°
2026-04-26 15:48 67.84777 -52.09160 33098 ft 520 kts 77°
2026-04-26 15:48 67.86261 -51.90371 33101 ft 521 kts 77°
2026-04-26 15:49 67.87726 -51.71538 33090 ft 522 kts 78°
2026-04-26 15:49 67.89170 -51.52664 33086 ft 522 kts 78°
2026-04-26 15:50 67.90594 -51.33756 33080 ft 522 kts 78°
2026-04-26 15:50 67.91994 -51.14859 33074 ft 521 kts 78°
2026-04-26 15:51 67.93368 -50.95991 33070 ft 519 kts 79°
2026-04-26 15:51 67.94716 -50.77156 33061 ft 518 kts 79°
2026-04-26 15:52 67.96031 -50.58464 33061 ft 516 kts 79°
2026-04-26 15:52 67.97330 -50.39684 33065 ft 515 kts 80°
2026-04-26 15:53 67.98609 -50.20898 33070 ft 515 kts 80°
2026-04-26 15:53 67.99910 -50.02121 33073 ft 515 kts 77°
2026-04-26 15:54 68.02036 -49.83877 33084 ft 515 kts 70°
2026-04-26 15:54 68.04504 -49.65876 33081 ft 516 kts 70°
2026-04-26 15:55 68.06947 -49.47822 33078 ft 517 kts 71°
2026-04-26 15:55 68.09335 -49.29691 33077 ft 517 kts 71°
2026-04-26 15:56 68.11690 -49.11478 33075 ft 517 kts 72°
2026-04-26 15:56 68.14023 -48.93234 33075 ft 517 kts 72°
2026-04-26 15:57 68.16338 -48.74947 33071 ft 517 kts 72°
2026-04-26 15:57 68.18636 -48.56619 33067 ft 517 kts 72°
2026-04-26 15:58 68.20912 -48.38270 33066 ft 517 kts 73°
2026-04-26 15:58 68.23165 -48.19899 33058 ft 517 kts 73°
2026-04-26 15:59 68.25397 -48.01500 33051 ft 517 kts 73°
2026-04-26 15:59 68.27610 -47.83060 33047 ft 517 kts 74°
2026-04-26 16:00 68.29802 -47.64579 33042 ft 517 kts 74°
2026-04-26 16:00 68.31974 -47.46069 33034 ft 517 kts 74°
2026-04-26 16:01 68.34125 -47.27520 33031 ft 517 kts 75°
2026-04-26 16:01 68.36257 -47.08921 33029 ft 517 kts 75°
2026-04-26 16:02 68.38367 -46.90299 33009 ft 517 kts 75°
2026-04-26 16:02 68.40448 -46.71718 32992 ft 518 kts 76°
2026-04-26 16:03 68.42520 -46.52997 32987 ft 518 kts 76°
2026-04-26 16:03 68.44574 -46.34213 32966 ft 518 kts 76°
2026-04-26 16:04 68.46607 -46.15394 32963 ft 519 kts 77°
2026-04-26 16:04 68.48622 -45.96518 32945 ft 519 kts 77°
2026-04-26 16:05 68.50618 -45.77579 32936 ft 520 kts 77°
2026-04-26 16:05 68.52596 -45.58580 32925 ft 521 kts 77°
2026-04-26 16:06 68.54554 -45.39532 32915 ft 521 kts 78°
2026-04-26 16:06 68.56494 -45.20420 32903 ft 522 kts 78°
2026-04-26 16:07 68.58412 -45.01272 32889 ft 523 kts 78°
2026-04-26 16:07 68.60313 -44.82045 32873 ft 523 kts 78°
2026-04-26 16:08 68.62194 -44.62762 32863 ft 523 kts 79°
2026-04-26 16:08 68.64039 -44.43591 32847 ft 524 kts 79°
2026-04-26 16:09 68.65876 -44.24239 32839 ft 524 kts 79°
2026-04-26 16:09 68.67693 -44.04848 32823 ft 524 kts 79°
2026-04-26 16:10 68.69486 -43.85438 32823 ft 524 kts 80°
2026-04-26 16:10 68.71257 -43.65981 32815 ft 524 kts 80°
2026-04-26 16:11 68.73008 -43.46483 32822 ft 525 kts 80°
2026-04-26 16:11 68.74446 -43.30244 32822 ft 525 kts 81°
2026-04-26 16:12 68.76157 -43.10678 32827 ft 525 kts 81°
2026-04-26 16:12 68.78683 -42.81232 32826 ft 526 kts 81°
2026-04-26 16:13 68.80341 -42.61544 32826 ft 526 kts 81°
2026-04-26 16:13 68.81977 -42.41811 32845 ft 527 kts 82°
2026-04-26 16:14 68.83591 -42.22040 32832 ft 527 kts 82°
2026-04-26 16:15 68.85963 -41.92398 32846 ft 528 kts 82°
2026-04-26 16:15 68.87533 -41.72380 32843 ft 528 kts 82°
2026-04-26 16:16 68.89823 -41.42588 32845 ft 529 kts 83°
2026-04-26 16:16 68.91329 -41.22570 32850 ft 530 kts 83°
2026-04-26 16:17 68.92811 -41.02536 32844 ft 530 kts 83°
2026-04-26 16:17 68.94271 -40.82450 32843 ft 530 kts 83°
2026-04-26 16:18 68.96421 -40.52218 32849 ft 531 kts 84°
2026-04-26 16:19 68.98519 -40.21934 32851 ft 531 kts 84°
2026-04-26 16:20 69.00339 -39.91527 32877 ft 527 kts 90°
2026-04-26 16:20 69.01139 -39.61108 32877 ft 526 kts 92°
2026-04-26 16:21 69.01629 -39.40719 32875 ft 527 kts 92°
2026-04-26 16:21 69.02131 -39.20302 32888 ft 528 kts 92°
2026-04-26 16:22 69.02624 -38.99828 32890 ft 528 kts 92°
2026-04-26 16:22 69.03094 -38.79341 32893 ft 529 kts 92°
2026-04-26 16:23 69.03536 -38.58942 32894 ft 529 kts 92°
2026-04-26 16:23 69.03954 -38.38410 32909 ft 530 kts 92°
2026-04-26 16:24 69.04348 -38.17809 32927 ft 531 kts 93°
2026-04-26 16:24 69.04718 -37.97225 32919 ft 531 kts 93°
2026-04-26 16:25 69.05063 -37.76590 32923 ft 531 kts 93°
2026-04-26 16:25 69.05384 -37.55937 32938 ft 532 kts 94°
2026-04-26 16:26 69.05680 -37.35280 32953 ft 532 kts 94°
2026-04-26 16:26 69.05949 -37.14745 32976 ft 532 kts 94°
2026-04-26 16:27 69.06197 -36.93926 32978 ft 533 kts 94°
2026-04-26 16:27 69.06419 -36.73219 33003 ft 533 kts 94°
2026-04-26 16:28 69.06614 -36.52650 33008 ft 533 kts 95°
2026-04-26 16:28 69.06785 -36.31934 33029 ft 533 kts 95°
2026-04-26 16:29 69.06932 -36.11206 33031 ft 533 kts 95°
2026-04-26 16:29 69.07054 -35.90465 33050 ft 533 kts 95°
2026-04-26 16:30 69.07151 -35.69739 33057 ft 533 kts 96°
2026-04-26 16:30 69.07223 -35.49022 33077 ft 533 kts 96°
2026-04-26 16:31 69.07269 -35.28309 33085 ft 533 kts 96°
2026-04-26 16:31 69.07291 -35.07585 33105 ft 533 kts 96°
2026-04-26 16:32 69.07290 -34.90366 33115 ft 533 kts 96°
2026-04-26 16:32 69.07259 -34.66125 33125 ft 533 kts 97°
2026-04-26 16:33 69.07205 -34.45361 33125 ft 534 kts 97°
2026-04-26 16:33 69.07126 -34.24694 33125 ft 535 kts 97°
2026-04-26 16:34 69.07022 -34.03872 33115 ft 536 kts 97°
2026-04-26 16:34 69.06893 -33.83017 33135 ft 537 kts 97°
2026-04-26 16:35 69.06738 -33.62099 33121 ft 538 kts 97°
2026-04-26 16:35 69.06557 -33.41170 33114 ft 539 kts 97°
2026-04-26 16:36 69.06351 -33.20210 33105 ft 539 kts 98°
2026-04-26 16:36 69.06121 -32.99407 33112 ft 539 kts 98°
2026-04-26 16:37 69.05863 -32.78469 33108 ft 539 kts 98°
2026-04-26 16:37 69.05629 -32.61052 33108 ft 539 kts 98°
2026-04-26 16:38 69.05272 -32.36595 33101 ft 539 kts 98°
2026-04-26 16:38 69.04938 -32.15716 33115 ft 539 kts 98°
2026-04-26 16:39 69.04579 -31.94791 33108 ft 538 kts 98°
2026-04-26 16:39 69.04194 -31.73914 33136 ft 538 kts 98°
2026-04-26 16:40 69.03784 -31.53026 33122 ft 538 kts 98°
2026-04-26 16:40 69.03353 -31.32336 33146 ft 537 kts 98°
2026-04-26 16:41 69.02894 -31.11530 33144 ft 536 kts 98°
2026-04-26 16:41 69.02411 -30.90783 33157 ft 535 kts 98°
2026-04-26 16:42 69.01903 -30.70092 33137 ft 534 kts 99°
2026-04-26 16:42 69.01373 -30.49443 33141 ft 533 kts 99°
2026-04-26 16:43 69.00818 -30.28849 33127 ft 532 kts 99°
2026-04-26 16:43 69.00243 -30.08301 33124 ft 531 kts 99°
2026-04-26 16:44 68.99296 -29.87983 33104 ft 526 kts 105°
2026-04-26 16:44 68.97898 -29.68122 33110 ft 525 kts 107°
2026-04-26 16:45 68.96455 -29.48192 33121 ft 525 kts 106°
2026-04-26 16:45 68.95021 -29.28230 33129 ft 526 kts 106°
2026-04-26 16:46 68.93587 -29.08300 33149 ft 526 kts 106°
2026-04-26 16:46 68.92132 -28.88389 33148 ft 527 kts 106°
2026-04-26 16:47 68.90648 -28.68452 33153 ft 527 kts 106°
2026-04-26 16:47 68.89139 -28.48529 33161 ft 528 kts 106°
2026-04-26 16:48 68.87605 -28.28639 33161 ft 528 kts 106°
2026-04-26 16:48 68.86047 -28.08760 33175 ft 527 kts 107°
2026-04-26 16:49 68.84467 -27.88915 33176 ft 528 kts 107°
2026-04-26 16:49 68.82862 -27.69075 33187 ft 528 kts 107°
2026-04-26 16:50 68.81233 -27.49258 33187 ft 528 kts 107°
2026-04-26 16:50 68.79585 -27.29511 33208 ft 528 kts 107°
2026-04-26 16:51 68.77910 -27.09758 33196 ft 528 kts 107°
2026-04-26 16:51 68.76227 -26.90195 33219 ft 528 kts 107°
2026-04-26 16:52 68.75078 -26.77026 33216 ft 529 kts 108°
2026-04-26 16:52 68.72758 -26.50797 33207 ft 529 kts 108°
2026-04-26 16:53 68.70991 -26.31131 33235 ft 529 kts 108°
2026-04-26 16:53 68.69198 -26.11500 33234 ft 529 kts 108°
2026-04-26 16:54 68.67382 -25.91879 33235 ft 529 kts 108°
2026-04-26 16:54 68.65546 -25.72317 33237 ft 529 kts 108°
2026-04-26 16:55 68.63685 -25.52759 33237 ft 530 kts 108°
2026-04-26 16:55 68.61800 -25.33231 33233 ft 530 kts 109°
2026-04-26 16:56 68.58928 -25.03970 33219 ft 531 kts 109°
2026-04-26 16:57 68.56982 -24.84479 33220 ft 531 kts 109°
2026-04-26 16:57 68.54020 -24.55290 33219 ft 532 kts 109°
2026-04-26 16:58 68.52696 -24.42422 33210 ft 532 kts 109°
2026-04-26 16:59 68.48960 -24.06710 33211 ft 534 kts 110°
2026-04-26 17:00 68.44796 -23.67854 33199 ft 535 kts 110°
2026-04-26 17:00 68.41614 -23.38808 33189 ft 535 kts 110°
2026-04-26 17:01 68.39463 -23.19478 33177 ft 535 kts 111°
2026-04-26 17:01 68.37657 -23.03429 33171 ft 535 kts 111°
2026-04-26 17:02 68.35463 -22.84150 33183 ft 536 kts 111°
2026-04-26 17:02 68.33246 -22.64896 33175 ft 536 kts 111°
2026-04-26 17:03 68.31006 -22.45668 33164 ft 535 kts 111°
2026-04-26 17:03 68.28746 -22.26502 33156 ft 535 kts 112°
2026-04-26 17:04 68.26469 -22.07414 33159 ft 534 kts 112°
2026-04-26 17:04 68.24173 -21.88380 33142 ft 533 kts 112°
2026-04-26 17:05 68.21856 -21.69401 33158 ft 533 kts 112°
2026-04-26 17:05 68.19520 -21.50479 33135 ft 532 kts 112°
2026-04-26 17:06 68.17166 -21.31627 33129 ft 532 kts 112°
2026-04-26 17:06 68.14795 -21.12839 33139 ft 531 kts 113°
2026-04-26 17:07 68.12404 -20.94103 33133 ft 531 kts 113°
2026-04-26 17:07 68.10010 -20.75548 33121 ft 530 kts 113°
2026-04-26 17:08 68.07577 -20.56894 33127 ft 530 kts 113°
2026-04-26 17:08 68.05128 -20.38312 33113 ft 530 kts 114°
2026-04-26 17:09 68.03075 -20.22880 33110 ft 530 kts 114°
2026-04-26 17:09 68.00172 -20.01262 33107 ft 529 kts 114°
2026-04-26 17:10 67.97502 -19.83028 33106 ft 527 kts 117°
2026-04-26 17:10 67.94622 -19.65120 33102 ft 526 kts 117°
2026-04-26 17:11 67.91730 -19.47276 33098 ft 525 kts 117°
2026-04-26 17:11 67.88861 -19.29441 33097 ft 525 kts 117°
2026-04-26 17:12 67.85993 -19.11633 33276 ft 524 kts 117°
2026-04-26 17:12 67.84576 -19.02857 33195 ft 509 kts 117°
2026-04-26 17:13 67.81871 -18.86182 33079 ft 480 kts 118°
2026-04-26 17:13 67.80537 -18.78083 33092 ft 482 kts 118°
2026-04-26 17:14 67.76421 -18.53406 33095 ft 496 kts 118°
2026-04-26 17:14 67.72229 -18.28452 33078 ft 495 kts 118°
2026-04-26 17:15 67.68014 -18.03645 33083 ft 494 kts 118°
2026-04-26 17:16 67.65184 -17.87182 33070 ft 494 kts 118°
2026-04-26 17:16 67.62347 -17.70804 33070 ft 492 kts 118°
2026-04-26 17:17 67.59499 -17.54507 33073 ft 491 kts 118°
2026-04-26 17:17 67.56641 -17.38281 33073 ft 490 kts 118°
2026-04-26 17:18 67.53772 -17.22122 33067 ft 490 kts 118°
2026-04-26 17:18 67.50888 -17.06011 33072 ft 490 kts 118°
2026-04-26 17:19 67.46549 -16.82008 33077 ft 490 kts 118°
2026-04-26 17:19 67.43620 -16.65967 33072 ft 490 kts 119°
2026-04-26 17:20 67.41156 -16.52568 33074 ft 490 kts 119°
2026-04-26 17:20 67.37719 -16.34021 33057 ft 490 kts 119°
2026-04-26 17:21 67.34745 -16.18110 33068 ft 490 kts 119°
2026-04-26 17:21 67.31759 -16.02256 33060 ft 489 kts 119°
2026-04-26 17:22 67.28756 -15.86432 33059 ft 489 kts 119°
2026-04-26 17:22 67.25745 -15.70694 33064 ft 488 kts 119°
2026-04-26 17:23 67.22719 -15.54993 33061 ft 487 kts 120°
2026-04-26 17:23 67.19687 -15.39379 33067 ft 486 kts 120°
2026-04-26 17:24 67.16646 -15.23833 33066 ft 486 kts 120°
2026-04-26 17:24 67.13590 -15.08333 33062 ft 485 kts 120°
2026-04-26 17:25 67.10526 -14.92901 33064 ft 485 kts 120°
2026-04-26 17:25 67.07449 -14.77522 33065 ft 484 kts 120°
2026-04-26 17:26 67.04355 -14.62172 33065 ft 484 kts 120°
2026-04-26 17:26 67.01250 -14.46875 33065 ft 484 kts 120°
2026-04-26 17:27 66.98128 -14.31608 33064 ft 484 kts 120°
2026-04-26 17:27 66.95011 -14.16475 33063 ft 484 kts 120°
2026-04-26 17:28 66.91862 -14.01297 33082 ft 484 kts 121°
2026-04-26 17:28 66.88700 -13.86165 33059 ft 484 kts 121°
2026-04-26 17:29 66.86039 -13.73511 33057 ft 484 kts 121°
2026-04-26 17:29 66.82335 -13.56024 33055 ft 484 kts 121°
2026-04-26 17:30 66.79132 -13.41017 33075 ft 484 kts 121°
2026-04-26 17:30 66.75915 -13.26052 33073 ft 484 kts 121°
2026-04-26 17:31 66.72681 -13.11112 33066 ft 484 kts 121°
2026-04-26 17:31 66.69432 -12.96205 33068 ft 484 kts 121°
2026-04-26 17:32 66.66168 -12.81335 33076 ft 484 kts 121°
2026-04-26 17:32 66.62890 -12.66507 33077 ft 484 kts 121°
2026-04-26 17:33 66.59600 -12.51723 33084 ft 484 kts 121°
2026-04-26 17:34 66.54628 -12.29570 33082 ft 484 kts 122°
2026-04-26 17:34 66.51299 -12.14867 33091 ft 484 kts 122°
2026-04-26 17:35 66.47959 -12.00213 33092 ft 484 kts 122°
2026-04-26 17:35 66.44624 -11.85682 33092 ft 484 kts 122°
2026-04-26 17:36 66.41255 -11.71101 33095 ft 484 kts 122°
2026-04-26 17:36 66.37876 -11.56572 33101 ft 484 kts 122°
2026-04-26 17:37 66.34479 -11.42067 33099 ft 484 kts 122°
2026-04-26 17:37 66.31069 -11.27597 33111 ft 484 kts 122°
2026-04-26 17:38 66.25930 -11.05978 33112 ft 485 kts 123°
2026-04-26 17:38 66.22486 -10.91605 33117 ft 484 kts 123°
2026-04-26 17:39 66.19031 -10.77281 33122 ft 484 kts 123°
2026-04-26 17:39 66.15565 -10.63005 33124 ft 484 kts 123°
2026-04-26 17:40 66.13257 -10.53553 33134 ft 484 kts 123°
2026-04-26 17:40 66.08589 -10.34552 33134 ft 484 kts 123°
2026-04-26 17:41 66.05106 -10.20481 33137 ft 484 kts 123°
2026-04-26 17:41 66.01590 -10.06355 33140 ft 484 kts 124°
2026-04-26 17:42 65.98094 -9.92236 33145 ft 484 kts 123°
2026-04-26 17:42 65.94686 -9.77973 33152 ft 484 kts 122°
2026-04-26 17:43 65.91291 -9.63742 33151 ft 484 kts 122°
2026-04-26 17:43 65.87861 -9.49525 33157 ft 484 kts 123°
2026-04-26 17:44 65.84417 -9.35390 33158 ft 484 kts 123°
2026-04-26 17:44 65.80957 -9.21299 33167 ft 484 kts 123°
2026-04-26 17:45 65.77482 -9.07235 33165 ft 484 kts 123°
2026-04-26 17:45 65.73999 -8.93227 33171 ft 484 kts 123°
2026-04-26 17:46 65.70504 -8.79257 33173 ft 484 kts 123°
2026-04-26 17:46 65.66996 -8.65322 33173 ft 484 kts 123°
2026-04-26 17:47 65.64666 -8.56119 33173 ft 483 kts 123°
2026-04-26 17:47 65.59970 -8.37682 33183 ft 483 kts 123°
2026-04-26 17:48 65.56427 -8.23871 33184 ft 483 kts 124°
2026-04-26 17:48 65.53453 -8.12348 33185 ft 483 kts 124°
2026-04-26 17:49 65.49884 -7.98596 33193 ft 483 kts 124°
2026-04-26 17:49 65.46308 -7.84903 33191 ft 483 kts 124°
2026-04-26 17:50 65.42719 -7.71242 33193 ft 483 kts 124°
2026-04-26 17:50 65.39119 -7.57627 33193 ft 483 kts 124°
2026-04-26 17:51 65.35529 -7.44131 33193 ft 483 kts 124°
2026-04-26 17:51 65.31905 -7.30590 33195 ft 483 kts 124°
2026-04-26 17:52 65.29475 -7.21558 33192 ft 483 kts 124°